Other Surface Observations
Issued by NWS

Home | Current Version | Previous Version | Text Only | Print | Product List | Glossary On
Versions: 1 2 3 4 5 6 7 8 9 10 11 12 13 14 15 16 17 18 19 20 21 22 23 24 25 26 27 28 29 30 31 32 33 34 35 36 37 38 39 40 41 42 43 44 45 46 47 48 49 50
000
SXUS52 KTAE 171419
OSOTAE
OSOTAE
North Florida/South Alabama/Southwest Georgia Weather Roundup
National Weather Service Tallahassee Florida
1000 AM EDT THU AUG 17 2017

Note: "fair" indicates few or no clouds below 12,000 feet with no
significant weather and/or obstructions to visibility.

!FLZ017-115-028-034-025-171500
...North Florida...

CITY           SKY/WX    TMP DP  RH WIND       PRES   REMARKS
TALLAHASSEE    MOSUNNY   86  76  71 NW9       30.11R HX  96
APALACHICOLA   SUNNY     88  80  77 NW6       30.10S HX 104
PERRY          SUNNY    N/A N/A N/A NW5       30.11R
CROSS CITY     CLOUDY    86  79  79 W9        30.14S HX  99
JACKSONVILLE   MOSUNNY   87  78  74 NW3       30.07S HX 100
$$

!FLZ112-006-005-002-011-171500
...Florida Panhandle...

CITY           SKY/WX    TMP DP  RH WIND       PRES   REMARKS
MARIANNA       SUNNY     84  77  79 NW7       30.10S HX  94
BONIFAY        NOT AVBL
PANAMA CITY NW FAIR      86  77  74 NW6       30.10S HX  97
TYNDALL AFB    MOSUNNY   84  75  74 SW10      30.11R HX  92
TYND DRONE APT LGT RAIN  79  73  83 SW6       30.11S
DE FUNIAK SPR  FAIR      83  76  78 NW8       30.12S HX  92
EGLIN AFB      MOSUNNY   85  77  75 NW7       30.10R HX  96
DESTIN         SUNNY     89  75  63 NW5       30.10S HX  99
HURLBURT       SUNNY     87  75  68 VRB5      30.09S HX  96
CRESTVIEW      SUNNY     85  76  74 W6        30.12S HX  94
PENSACOLA      MOSUNNY   88  77  69 SW6       30.10R HX 100
$$

!ALZ063-066-171500
...South Alabama...

CITY           SKY/WX    TMP DP  RH WIND       PRES   REMARKS
DOTHAN         SUNNY     84  76  76 W7        30.15R HX  93
OZARK CAIRNS   SUNNY     83  75  76 NW5       30.11S HX  90
FT RUCKER HELI SUNNY     83  74  74 NW5       30.11S HX  90
RUCKER HELI 3  FAIR      83  74  73 NW5       30.11S HX  90
RUCKER HELI 2  FAIR      83  75  77 NW5       30.11R HX  90
FLORALA APT    NOT AVBL
ANDALUSIA      SUNNY     86  74  67 W3        30.11S HX  94
TROY           SUNNY     82  74  76 W6        30.12S
EUFALA         FAIR      85  76  74 VRB5      30.10S HX  94
MOBILE         MOSUNNY   84  75  74 VRB3      30.11S HX  92
$$

!GAZ120>161-171500
...Southwest and South Central Georgia...

CITY           SKY/WX    TMP DP  RH WIND       PRES   REMARKS
THOMASVILLE    FAIR      86  77  74 NW6       30.12R HX  97
BAINBRIDGE     SUNNY     86  81  84 W5        30.11S HX 102
MOODY AFB      PTSUNNY   85  76  76 CALM      30.09S HX  94
VALDOSTA       MOSUNNY   86  77  74 VRB3      30.10S HX  97
MOULTRIE       SUNNY     84  77  79 W5        30.11S HX  94
BLAKELY        SUNNY     86  73  66 W5        30.11S HX  93
ALBANY         SUNNY     86  76  71 VRB5      30.12S HX  96
TIFTON         FAIR      86  76  73 N7        30.10S HX  96
FITZGERALD     PTSUNNY   88  78  73 W7        30.12S HX 101
CORDELE        FAIR      89  76  66 W3        30.11S HX 100
AMERICUS       FAIR      86  73  66 W5        30.12S HX  93
HOMERVILLE     FAIR      86  75  70 NW8       30.10S HX  95
$$

!GMZ750-755-770-775-171500
...Coastal and Buoy Obs...

STATION/POSITION TIME  TEMP    WIND        PRES    VSBY  WAVE
                       AIR SEA DIR/SP/G                  HT/PER
                 (UTC) (F)     (DEG/KT/KT) (MB)    (MI)  (FT/S)
KEATON BEACH     1400   85     300/  9/ 13 1018.9R
CEDAR KEY        1400   84     330/  6/  9 1019.8R
C TOWER          1400   85                 1019.9R
APALACHICOLA BUO 1350   84 86  280/  6/  8 1019.3R         1/ 6
PANAMA CITY BUOY 1350   86 87  280/  4/  4 1019.3R         1/ 5
MOBILE BUOY      1400   86 87  260/  4/  6 1019.5
ORANGE BCH AL BU 1350   85 87  290/  8/  8 1018.9R         1/ 6
$$




USA.gov is the U.S. government's official web portal to all federal, state and local government web resources and services.